Eveleth, MN

1:07 AM CDT on May 25, 2018 (GMT -0500)
Eveleth-Virginia Municipal

Weather History for KEVM - June, 2014

Change the Weather History Date:

Tuesday, June 10, 2014

  Actual Average Record
Temperature  
Mean Temperature 57 °F -  
Max Temperature 73 °F 69 °F 86 °F (2012)
Min Temperature 41 °F 45 °F 32 °F (2006)
Degree Days  
Heating Degree Days 8    
Growing Degree Days 7 (Base 50)    
Moisture  
Dew Point 46 °F    
Average Humidity 67    
Maximum Humidity 100    
Minimum Humidity 35    
Precipitation  
Precipitation 0.00 in - - ()
Sea Level Pressure  
Sea Level Pressure 29.96 in    
Wind  
Wind Speed 3 mph (SSE)    
Max Wind Speed 12 mph    
Max Gust Speed 16 mph    
Visibility 10 miles    
Events      
Averages and records for this station are not official NWS values.
T = Trace of Precipitation, MM = Missing Value Source: NWS Daily Summary

Daily Weather History Graph

Daily Weather History Graph

Search for Another Location

Airport or City:

Astronomy

Jun. 10, 2014 Rise Set
Actual Time 5:13 AM CDT 9:06 PM CDT
Civil Twilight 4:33 AM CDT 9:46 PM CDT
Nautical Twilight 3:38 AM CDT 10:41 PM CDT
Astronomical Twilight 2:15 AM CDT 12:04 AM CDT
Moon 6:22 PM CDT (6/10) 3:31 AM CDT (6/10)
Length of Visible Light 17h 13m
Length of Day
15h 52m
Waxing Gibbous, 92% of the Moon is Illuminated
Jun 10
Waxing Gibbous
Jun 12
Full
Jun 19
Last Quarter
Jun 27
New
Jul 5
First Quarter

Hourly Weather History & Observations

Time (CDT) Temp. Windchill Dew Point Humidity Pressure Visibility Wind Dir Wind Speed Gust Speed Precip Events Conditions
12:13 AM 46.4 °F - 44.6 °F 93% 29.99 in 10.0 mi Calm Calm - N/A   Clear
12:33 AM 46.4 °F - 44.6 °F 93% 29.99 in 10.0 mi Calm Calm - N/A   Clear
12:53 AM 44.6 °F - 44.6 °F 100% 29.99 in 10.0 mi Calm Calm - N/A   Clear
1:13 AM 44.6 °F - 42.8 °F 93% 29.99 in 10.0 mi Calm Calm - N/A   Clear
1:33 AM 44.6 °F - 42.8 °F 93% 29.99 in 10.0 mi Calm Calm - N/A   Scattered Clouds
1:54 AM 44.6 °F - 42.8 °F 93% 29.99 in 10.0 mi Calm Calm - N/A   Mostly Cloudy
2:13 AM 42.8 °F - 42.8 °F 100% 29.98 in 10.0 mi Calm Calm - N/A   Mostly Cloudy
2:33 AM 42.8 °F 41.1 °F 42.8 °F 100% 29.98 in 10.0 mi NNE 3.5 mph - N/A   Scattered Clouds
2:54 AM 42.8 °F - 41.0 °F 93% 29.99 in 10.0 mi Calm Calm - N/A   Scattered Clouds
3:13 AM 42.8 °F - 42.8 °F 100% 30.00 in 10.0 mi Calm Calm - N/A   Scattered Clouds
3:33 AM 42.8 °F - 42.8 °F 100% 30.00 in 10.0 mi Calm Calm - N/A   Scattered Clouds
3:54 AM 42.8 °F - 41.0 °F 93% 29.99 in 7.0 mi Calm Calm - N/A   Mostly Cloudy
4:13 AM 42.8 °F - 41.0 °F 93% 30.00 in 7.0 mi Calm Calm - N/A   Scattered Clouds
4:33 AM 42.8 °F - 41.0 °F 93% 30.00 in 7.0 mi Calm Calm - N/A   Scattered Clouds
4:53 AM 42.8 °F - 41.0 °F 93% 30.00 in 7.0 mi Calm Calm - N/A   Scattered Clouds
5:13 AM 41.0 °F - 41.0 °F 100% 30.00 in 5.0 mi Calm Calm - N/A   Clear
5:33 AM 41.0 °F - 39.2 °F 93% 30.00 in 7.0 mi Calm Calm - N/A   Clear
5:53 AM 41.0 °F - 41.0 °F 100% 30.01 in 10.0 mi Calm Calm - N/A   Clear
6:13 AM 42.8 °F - 41.0 °F 93% 30.01 in 10.0 mi Calm Calm - N/A   Clear
6:33 AM 44.6 °F - 42.8 °F 93% 30.01 in 10.0 mi Calm Calm - N/A   Clear
6:53 AM 50.0 °F - 48.2 °F 94% 30.01 in 10.0 mi Calm Calm - N/A   Clear
7:13 AM 51.8 °F - 50.0 °F 94% 30.02 in 10.0 mi Calm Calm - N/A   Clear
7:33 AM 51.8 °F - 46.4 °F 82% 30.02 in 10.0 mi Calm Calm - N/A   Clear
7:53 AM 53.6 °F - 46.4 °F 77% 30.01 in 10.0 mi Calm Calm - N/A   Clear
8:13 AM 57.2 °F - 50.0 °F 77% 30.01 in 10.0 mi Calm Calm - N/A   Clear
8:53 AM 59.0 °F - 50.0 °F 72% 30.00 in 10.0 mi Calm Calm - N/A   Clear
9:13 AM 62.6 °F - 50.0 °F 63% 30.00 in 10.0 mi Calm Calm - N/A   Clear
9:33 AM 62.6 °F - 51.8 °F 68% 30.00 in 10.0 mi Calm Calm - N/A   Clear
10:13 AM 68.0 °F - 50.0 °F 52% 29.99 in 10.0 mi SSE 4.6 mph - N/A   Clear
10:33 AM 68.0 °F - 46.4 °F 46% 29.99 in 10.0 mi WSW 6.9 mph - N/A   Clear
10:53 AM 69.8 °F - 50.0 °F 49% 29.99 in 10.0 mi SSE 4.6 mph - N/A   Clear
11:13 AM 71.6 °F - 51.8 °F 50% 29.98 in 10.0 mi SSE 10.4 mph - N/A   Scattered Clouds
11:33 AM 71.6 °F - 50.0 °F 46% 29.98 in 10.0 mi South 9.2 mph - N/A   Clear
12:13 PM 71.6 °F - 48.2 °F 43% 29.97 in 10.0 mi SSE 9.2 mph - N/A   Clear
12:33 PM 71.6 °F - 46.4 °F 41% 29.97 in 10.0 mi SSE 10.4 mph - N/A   Clear
12:53 PM 71.6 °F - 46.4 °F 41% 29.97 in 10.0 mi SSW 10.4 mph - N/A   Scattered Clouds
1:13 PM 71.6 °F - 44.6 °F 38% 29.96 in 10.0 mi SSE 11.5 mph - N/A   Clear
1:33 PM 71.6 °F - 44.6 °F 38% 29.96 in 10.0 mi SSW 11.5 mph - N/A   Scattered Clouds
2:13 PM 71.6 °F - 46.4 °F 41% 29.96 in 10.0 mi South 9.2 mph 16.1 mph N/A   Mostly Cloudy
2:33 PM 71.6 °F - 44.6 °F 38% 29.95 in 10.0 mi SE 6.9 mph - N/A   Scattered Clouds
2:54 PM 71.6 °F - 44.6 °F 38% 29.95 in 10.0 mi SSE 5.8 mph - N/A   Scattered Clouds
3:13 PM 71.6 °F - 44.6 °F 38% 29.94 in 10.0 mi South 11.5 mph - N/A   Mostly Cloudy
3:33 PM 71.6 °F - 46.4 °F 41% 29.94 in 10.0 mi SSE 10.4 mph - N/A   Mostly Cloudy
4:13 PM 71.6 °F - 42.8 °F 35% 29.93 in 10.0 mi SSW 6.9 mph - N/A   Mostly Cloudy
4:33 PM 73.4 °F - 44.6 °F 36% 29.93 in 10.0 mi South 10.4 mph - N/A   Scattered Clouds
4:54 PM 73.4 °F - 44.6 °F 36% 29.93 in 10.0 mi South 6.9 mph - N/A   Scattered Clouds
5:13 PM 71.6 °F - 46.4 °F 41% 29.93 in 10.0 mi SSE 4.6 mph - N/A   Mostly Cloudy
5:33 PM 71.6 °F - 46.4 °F 41% 29.93 in 10.0 mi South 6.9 mph - N/A   Overcast
5:54 PM 71.6 °F - 50.0 °F 46% 29.92 in 10.0 mi SSE 8.1 mph - N/A   Mostly Cloudy
6:13 PM 71.6 °F - 50.0 °F 46% 29.92 in 10.0 mi SSE 6.9 mph - N/A   Mostly Cloudy
6:33 PM 71.6 °F - 46.4 °F 41% 29.91 in 10.0 mi SSE 8.1 mph - N/A   Scattered Clouds
6:54 PM 71.6 °F - 50.0 °F 46% 29.91 in 10.0 mi South 9.2 mph - N/A   Scattered Clouds
7:13 PM 69.8 °F - 48.2 °F 46% 29.92 in 10.0 mi SSE 8.1 mph - N/A   Mostly Cloudy
7:33 PM 69.8 °F - 50.0 °F 49% 29.91 in 10.0 mi SSE 5.8 mph - N/A   Scattered Clouds
7:54 PM 69.8 °F - 50.0 °F 49% 29.91 in 10.0 mi SSE 5.8 mph - N/A   Mostly Cloudy
8:13 PM 64.4 °F - 50.0 °F 59% 29.92 in 10.0 mi SSE 5.8 mph - N/A   Scattered Clouds
8:33 PM 64.4 °F - 50.0 °F 59% 29.91 in 10.0 mi SSE 4.6 mph - N/A   Mostly Cloudy
8:53 PM 62.6 °F - 50.0 °F 63% 29.92 in 10.0 mi SSE 5.8 mph - N/A   Scattered Clouds
9:13 PM 62.6 °F - 46.4 °F 55% 29.92 in 10.0 mi SSE 9.2 mph - N/A   Clear
9:33 PM 60.8 °F - 46.4 °F 59% 29.92 in 10.0 mi SE 4.6 mph - N/A   Clear
10:13 PM 59.0 °F - 44.6 °F 59% 29.92 in 10.0 mi Calm Calm - N/A   Clear
10:33 PM 59.0 °F - 44.6 °F 59% 29.92 in 10.0 mi Calm Calm - N/A   Clear
10:53 PM 53.6 °F - 46.4 °F 77% 29.92 in 10.0 mi ENE 3.5 mph - N/A   Clear
11:13 PM 53.6 °F - 46.4 °F 77% 29.92 in 10.0 mi NNE 3.5 mph - N/A   Clear
11:33 PM 53.6 °F - 44.6 °F 72% 29.92 in 10.0 mi Calm Calm - N/A   Clear
11:53 PM 51.8 °F - 46.4 °F 82% 29.91 in 10.0 mi NE 3.5 mph - N/A   Clear